Find Starlink 31940

NORAD ID: 59873 Int'l Des: 2024-098 Owner: SPXS Country: US Constellation: starlink operational
LEOCIRCULAR

Live Position

Loading 3D Globe...

About Starlink 31940

Description loading...

Upcoming Passes

Passes for default location (London). Set your location on the main map for personalized predictions.

Altitude History

Loading altitude history...

Two-Line Element Set

1 59873U 24098R 26125.57224921 -.00002157 00000-0 -68833-4 0 9992
2 59873 43.0046 309.1380 0001442 273.6322 86.4364 15.27598299110630
Epoch: May 5, 2026 • Age: 14 hours

Current Status

Altitude 484.6 km
Velocity 7.63 km/s
Sub-Earth Point 31.87°N, 62.09°E
Launch Date May 24, 2024
Age 1.9 years
Type internet

Technical Details

Classification Payload
Mass 730.00 kg
Dry Mass 700.00 kg
Total Mass 730.00 kg
Length 0.30 m
Diameter 4.10 m
Span 29.00 m
Shape Box + pan
Manufacturer SPXS
Bus Type Starlink V2M
Phase Status In Orbit
Owner/State SPXS/US

Most Searched